INTELSAT 10 (IS-10) (26766 NORAD) Tracking and Keplerian Element Data

This shows tracking and keplerian element data for the satellite.

Feedback or suggestion? Click here.




ElementValue
Catalog26766
NameINTELSAT 10 (IS-10)
Epoch Orbit4380
Epoch Day353.64562784
Epoch Year2025
RAAN61.0877
Inclination8.645
Eccentricity0.0007763
Argument of Perigee228.9364
Mean Anonmoly139.953
Mean Motion0.99074952
Decay Rate-1.33E-06
L11 26766U 01019A 25353.64562784 -.00000133 00000+0 00000+0 0 9994
L22 26766 8.6450 61.0877 0007763 228.9364 139.9530 0.99074952 43808



Live tracking and technical data element details for INTELSAT 10 (IS-10) (NORAD 26766). INTELSAT 10 (IS-10) can be tracked NOW for your location showing map with azimuth and elevation plus other details from your city location.







IsCatalogInMostPopularTable: catalog: 26766, numindb: 662
Update: records affected: 1



GetName: 26766 INTELSAT 10 (IS-10)

Hit Count: updated at: Sat, 14 Mar 2026 02:27:13 GMT